[[{"header":{"parameterUnit":"m.s-1","parameterCategory":1,"la1":30.2991,"la2":30.254,"lo1":-89.0895,"lo2":-89.0444,"dy":0.0017,"dx":0.0017,"nx":28,"ny":28,"refTime":"2025-07-25T03:00:00:Z","depth":0,"parameterNumber":2,"parameterNumberName":"U-component_of_WINDS"},"data":[0,0,0,0,0,0,0,0,0,0,0,0,0,0,0,0,0,0,0,0,0,0,0,0,0,0,0,0,0,0,0,0,0,0,0,0,0,0,0,0,0,0,0,0,0,0,0,0,0,0,0,0,0,0,0,0,0,0,-0.6613,-0.6614,0,-0.6659,-0.6659,-0.666,-0.6674,-0.6674,-0.6674,-0.6674,-0.6723,-0.6724,-0.6726,0,0,0,0,0,0,0,0,0,0,0,0,0,-0.6542,-0.6543,-0.6613,-0.6614,-0.6614,-0.6659,-0.6659,-0.666,-0.6674,-0.6674,-0.6674,-0.6673,-0.6722,-0.6724,-0.6726,0,0,0,0,0,0,0,0,0,0,0,0,0,-0.6579,-0.6544,-0.6613,-0.6627,-0.6628,-0.6659,-0.6659,-0.666,-0.6674,-0.6674,-0.6674,-0.6673,-0.6722,-0.6724,-0.6726,-0.6747,0,0,-0.6733,-0.6734,0,0,0,0,0,0,0,0,-0.6577,-0.6581,-0.6624,-0.6626,-0.6628,-0.666,-0.6652,-0.6689,-0.6674,-0.6657,-0.6674,-0.6673,-0.6703,-0.6706,-0.6716,-0.6749,-0.6751,-0.6733,-0.6735,-0.6736,-0.6736,0,0,0,0,0,0,0,-0.6574,-0.658,-0.6631,-0.6625,-0.6627,-0.6632,-0.6637,-0.6659,-0.6681,-0.6659,-0.666,-0.6665,-0.6703,-0.6713,-0.6717,-0.6752,-0.6733,-0.6735,-0.6737,-0.6738,-0.6806,-0.6806,0,0,0,0,0,0,-0.6569,-0.6577,-0.663,-0.6633,-0.6601,-0.6633,-0.6639,-0.665,-0.6681,-0.6685,-0.6665,-0.6665,-0.671,-0.6714,-0.6719,-0.6745,-0.6736,-0.6738,-0.6739,-0.6805,-0.6806,-0.6806,0,0,0,0,0,0,-0.6567,-0.6573,-0.6628,-0.6605,-0.6613,-0.6635,-0.6648,-0.6651,-0.6661,-0.6686,-0.669,-0.6671,-0.671,-0.6716,-0.674,-0.6747,-0.6739,-0.6741,-0.6805,-0.6805,-0.6806,-0.6798,0,0,0,0,0,0,-0.6565,-0.6573,-0.658,-0.6605,-0.6614,-0.6647,-0.6648,-0.6653,-0.6665,-0.6666,-0.6692,-0.6697,-0.671,-0.6736,-0.6742,-0.675,-0.6743,-0.6804,-0.6805,-0.6806,-0.6798,-0.6798,-0.6799,0,0,0,0,0,-0.6562,-0.6576,-0.658,-0.6587,-0.6623,-0.6648,-0.6653,-0.6667,-0.6665,-0.6674,-0.6689,-0.6696,-0.6745,-0.6739,-0.6745,-0.6754,-0.6804,-0.6805,-0.6806,-0.6797,-0.6798,-0.6799,0,0,0,0,0,0,-0.6552,-0.658,-0.6585,-0.6607,-0.6625,-0.665,-0.666,-0.6667,-0.6686,-0.6686,-0.6704,-0.671,-0.6733,-0.6746,-0.6738,-0.6776,-0.6775,-0.6777,-0.6766,-0.6767,-0.6768,-0.6764,-0.6745,0,0,0,0,0,-0.6552,-0.6569,-0.6593,-0.661,-0.6619,-0.6638,-0.6649,-0.6659,-0.6678,-0.6686,-0.6704,-0.6723,-0.6743,-0.6756,-0.6776,-0.68,-0.6806,-0.6809,-0.681,-0.681,-0.6812,-0.6826,-0.6828,-0.6809,-0.6809,-0.6809,0,0,-0.6553,-0.657,-0.658,-0.6609,-0.6624,-0.6641,-0.6644,-0.6663,-0.6677,-0.6689,-0.6713,-0.6727,-0.675,-0.6774,-0.6785,-0.6786,-0.6819,-0.6812,-0.6812,-0.6813,-0.6827,-0.6829,-0.6831,-0.681,-0.681,-0.681,0,0,-0.6564,-0.6578,-0.6594,-0.6609,-0.6631,-0.6644,-0.6648,-0.6673,-0.6682,-0.6706,-0.6716,-0.6733,-0.6767,-0.6783,-0.6796,-0.6813,-0.682,-0.6819,-0.6822,-0.6835,-0.6837,-0.6838,-0.6845,-0.6847,-0.6821,-0.6821,-0.6821,0,-0.6562,-0.6588,-0.6602,-0.662,-0.6633,-0.6644,-0.6662,-0.6676,-0.6704,-0.6713,-0.6712,-0.6755,-0.6772,-0.68,-0.6804,-0.6814,-0.682,-0.6816,-0.6835,-0.6837,-0.6839,-0.6845,-0.6847,-0.682,-0.682,-0.6821,-0.6821,0,-0.6585,-0.6603,-0.6614,-0.664,-0.6654,-0.6671,-0.6689,-0.6702,-0.671,-0.6723,-0.6748,-0.6768,-0.6792,-0.68,-0.6808,-0.683,-0.6829,-0.6832,-0.6831,-0.684,-0.6846,-0.6849,-0.682,-0.682,-0.682,-0.682,0,0,-0.659,-0.6623,-0.6627,-0.6639,-0.6665,-0.668,-0.6698,-0.6721,-0.6732,-0.6751,-0.6767,-0.6796,-0.6799,-0.6813,-0.6824,-0.6836,-0.6849,-0.6838,-0.6839,-0.6839,-0.6874,-0.6872,-0.6874,-0.6854,-0.6854,-0.6855,-0.6872,0,-0.6604,-0.6636,-0.665,-0.6676,-0.6693,-0.6705,-0.6721,-0.6739,-0.6752,-0.677,-0.6785,-0.6805,-0.6807,-0.6816,-0.6828,-0.6845,-0.6856,-0.6844,-0.687,-0.6871,-0.6864,-0.6877,-0.6875,-0.689,-0.6875,-0.6875,-0.6875,0,-0.6624,-0.6643,-0.667,-0.6694,-0.6702,-0.6716,-0.6738,-0.6755,-0.6776,-0.6785,-0.6801,-0.6811,-0.6832,-0.683,-0.686,-0.6851,-0.6863,-0.6873,-0.6874,-0.6877,-0.6874,-0.6881,-0.6896,-0.6898,-0.6879,-0.6879,-0.6879,0,-0.6625,-0.6657,-0.6678,-0.6688,-0.6716,-0.6726,-0.6738,-0.6759,-0.6772,-0.6792,-0.6801,-0.6823,-0.6836,-0.6853,-0.687,-0.6867,-0.6898,-0.6897,-0.6907,-0.6906,-0.6913,-0.6912,-0.693,-0.692,-0.692,-0.692,-0.692,0,-0.6639,-0.6656,-0.6679,-0.6691,-0.6711,-0.6727,-0.6746,-0.6759,-0.6778,-0.6794,-0.6806,-0.6822,-0.6842,-0.6861,-0.6874,-0.6897,-0.6902,-0.6911,-0.6914,-0.691,-0.6909,-0.6918,-0.6917,-0.6921,-0.6921,-0.6921,-0.6921,0,-0.6644,-0.6659,-0.6683,-0.6707,-0.6714,-0.6727,-0.6749,-0.6763,-0.6776,-0.6797,-0.6803,-0.6825,-0.6847,-0.6865,-0.6895,-0.6904,-0.6928,-0.6931,-0.692,-0.6922,-0.693,-0.6929,-0.6954,-0.6959,-0.6946,-0.6946,-0.6946,0,-0.6652,-0.6664,-0.669,-0.6702,-0.6713,-0.6732,-0.6745,-0.6761,-0.6775,-0.68,-0.6811,-0.6834,-0.6853,-0.6889,-0.6908,-0.6931,-0.6935,-0.6942,-0.6939,-0.6934,-0.6936,-0.6935,-0.6936,-0.6943,-0.6943,-0.6943,-0.6943,0,-0.6664,-0.6671,-0.6689,-0.671,-0.6725,-0.6742,-0.676,-0.6769,-0.6789,-0.6804,-0.6826,-0.6841,-0.6871,-0.6894,-0.6919,-0.6933,-0.6942,-0.6944,-0.6947,-0.6943,-0.6936,-0.694,-0.6921,-0.6943,-0.6943,-0.6943,-0.6943,-0.6943,-0.6671,-0.6683,-0.6703,-0.6722,-0.6737,-0.6754,-0.6768,-0.6783,-0.6801,-0.6826,-0.6835,-0.6858,-0.688,-0.6914,-0.6929,-0.6948,-0.6949,-0.6954,-0.6955,-0.6956,-0.6956,-0.6933,-0.6953,-0.6953,-0.6953,-0.6953,-0.6953,0,-0.6684,-0.6697,-0.6715,-0.6739,-0.6755,-0.676,-0.6781,-0.6794,-0.6814,-0.6833,-0.6851,-0.6878,-0.69,-0.6921,-0.6945,-0.6956,-0.6961,-0.6962,-0.6962,-0.6965,-0.6953,-0.6948,-0.6958,-0.6958,-0.6958,-0.6958,-0.6958,-0.6958,-0.6693,-0.6714,-0.6723,-0.6752,-0.6766,-0.6787,-0.6799,-0.6814,-0.6829,-0.6858,-0.6876,-0.6889,-0.691,-0.6935,-0.6956,-0.6962,-0.697,-0.697,-0.6977,-0.6966,-0.6966,-0.6965,-0.696,-0.6972,-0.6972,-0.6987,-0.6987,-0.6987]},{"header":{"parameterUnit":"m.s-1","parameterCategory":1,"la1":30.2991,"la2":30.254,"lo1":-89.0895,"lo2":-89.0444,"dy":0.0017,"dx":0.0017,"nx":28,"ny":28,"refTime":"2025-07-25T03:00:00:Z","depth":0,"parameterNumber":3,"parameterNumberName":"V-component_of_WINDS"},"data":[0,0,0,0,0,0,0,0,0,0,0,0,0,0,0,0,0,0,0,0,0,0,0,0,0,0,0,0,0,0,0,0,0,0,0,0,0,0,0,0,0,0,0,0,0,0,0,0,0,0,0,0,0,0,0,0,0,0,4.8375,4.8376,0,4.8487,4.8488,4.849,4.8512,4.8511,4.8511,4.851,4.8616,4.862,4.8624,0,0,0,0,0,0,0,0,0,0,0,0,0,4.8171,4.8174,4.8375,4.8376,4.8378,4.8487,4.8488,4.849,4.8512,4.8511,4.851,4.8509,4.8615,4.862,4.8624,0,0,0,0,0,0,0,0,0,0,0,0,0,4.8268,4.8176,4.8375,4.8402,4.8406,4.8487,4.8489,4.849,4.8513,4.8511,4.851,4.8509,4.8614,4.8619,4.8624,4.8683,0,0,4.8641,4.8643,0,0,0,0,0,0,0,0,4.8263,4.8276,4.8397,4.8401,4.8405,4.8485,4.8456,4.8555,4.8513,4.8472,4.851,4.8508,4.8573,4.8582,4.8605,4.8688,4.8693,4.8642,4.8645,4.8647,4.8649,0,0,0,0,0,0,0,4.8256,4.8271,4.8419,4.8398,4.8403,4.8406,4.8418,4.8474,4.8528,4.8475,4.8477,4.8491,4.8575,4.86,4.8608,4.8694,4.8641,4.8646,4.865,4.8652,4.8828,4.8829,0,0,0,0,0,0,4.8246,4.8265,4.8415,4.8422,4.833,4.8411,4.8425,4.846,4.8527,4.8537,4.8492,4.8491,4.8591,4.8602,4.8612,4.8684,4.8647,4.8652,4.8655,4.8827,4.8828,4.883,0,0,0,0,0,0,4.8241,4.8259,4.8411,4.8345,4.8364,4.8416,4.8455,4.8463,4.8488,4.854,4.8549,4.8508,4.8591,4.8604,4.8665,4.8688,4.8655,4.866,4.8825,4.8827,4.8829,4.8829,0,0,0,0,0,0,4.8235,4.8257,4.8282,4.8345,4.8368,4.8465,4.8457,4.8466,4.8499,4.8499,4.8558,4.8566,4.8591,4.8657,4.8671,4.8695,4.8664,4.8823,4.8826,4.8828,4.8827,4.883,4.8834,0,0,0,0,0,4.8228,4.8276,4.8284,4.8302,4.8401,4.8467,4.8479,4.8509,4.85,4.8524,4.8557,4.8564,4.8683,4.8663,4.8679,4.8705,4.8822,4.8825,4.8828,4.8825,4.883,4.8833,0,0,0,0,0,0,4.8212,4.8285,4.8294,4.8365,4.841,4.8471,4.8502,4.8513,4.856,4.8558,4.8591,4.8603,4.8662,4.8689,4.8666,4.8763,4.8751,4.8758,4.8744,4.8749,4.8752,4.8744,4.8668,0,0,0,0,0,4.8218,4.8268,4.8328,4.8384,4.8407,4.845,4.848,4.85,4.8546,4.8565,4.8602,4.8644,4.8691,4.8721,4.8767,4.8831,4.8842,4.8856,4.8859,4.8862,4.8867,4.89,4.8906,4.884,4.884,4.884,0,0,4.8228,4.8274,4.8304,4.8382,4.842,4.8468,4.8466,4.8518,4.8553,4.8572,4.8632,4.8661,4.871,4.8772,4.8801,4.8796,4.8887,4.8866,4.8867,4.8871,4.8904,4.891,4.8915,4.8843,4.8842,4.8842,0,0,4.8273,4.8313,4.8365,4.8402,4.8459,4.8487,4.8499,4.8559,4.8579,4.8641,4.8655,4.8695,4.8776,4.8811,4.8838,4.8893,4.8901,4.8907,4.8925,4.8957,4.8962,4.8967,4.8985,4.8991,4.8912,4.8912,4.8912,0,4.8278,4.8355,4.8388,4.844,4.8473,4.8494,4.8544,4.8577,4.8645,4.8666,4.866,4.8761,4.8795,4.8865,4.8878,4.8901,4.8913,4.8901,4.8959,4.8964,4.8969,4.8987,4.8994,4.8912,4.8912,4.8912,4.8912,0,4.8358,4.841,4.8444,4.8512,4.8548,4.8599,4.8637,4.8669,4.8684,4.8712,4.8773,4.8816,4.887,4.8888,4.8902,4.8959,4.8954,4.8953,4.8942,4.8975,4.8992,4.8999,4.8913,4.8913,4.8913,4.8913,0,0,4.8396,4.8482,4.8493,4.8524,4.8587,4.8627,4.8676,4.8732,4.8758,4.8803,4.8844,4.8911,4.8911,4.8942,4.896,4.8989,4.9028,4.8985,4.8986,4.899,4.909,4.909,4.9097,4.9033,4.9035,4.9036,4.9086,0,4.8448,4.8541,4.8572,4.8647,4.8695,4.8714,4.8757,4.8799,4.8826,4.8867,4.8895,4.8942,4.8939,4.8958,4.8987,4.9017,4.9048,4.9014,4.9069,4.907,4.9056,4.9107,4.9107,4.9152,4.9093,4.9094,4.9095,0,4.8521,4.8569,4.8651,4.8707,4.8728,4.8767,4.8819,4.886,4.8906,4.8923,4.8958,4.8974,4.9023,4.9008,4.9075,4.9051,4.9075,4.9093,4.9095,4.9101,4.9084,4.9113,4.9168,4.9174,4.9106,4.9105,4.9104,0,4.8539,4.8625,4.8685,4.871,4.8777,4.8803,4.8832,4.8877,4.8908,4.8953,4.8972,4.9021,4.9047,4.9083,4.911,4.9098,4.9173,4.9162,4.9187,4.9186,4.9202,4.9201,4.9261,4.9218,4.9218,4.9218,4.9218,0,4.8593,4.8642,4.8694,4.8731,4.8784,4.8817,4.8869,4.8898,4.8938,4.8978,4.8996,4.9032,4.9067,4.9107,4.9128,4.9179,4.919,4.9204,4.9209,4.9202,4.92,4.9218,4.9215,4.922,4.9219,4.9219,4.9219,0,4.8624,4.8661,4.8727,4.8785,4.8801,4.8838,4.8886,4.8921,4.8948,4.8998,4.9012,4.9053,4.9101,4.9132,4.9192,4.9206,4.9262,4.9266,4.9247,4.9249,4.9272,4.9269,4.9345,4.9356,4.9307,4.9307,4.9308,0,4.8656,4.8694,4.8757,4.8787,4.8816,4.8863,4.8895,4.8927,4.8959,4.9014,4.9041,4.9091,4.9132,4.9207,4.9241,4.9286,4.9291,4.9315,4.9298,4.929,4.929,4.9288,4.9291,4.9317,4.9318,4.9318,4.9318,0,4.8708,4.8724,4.8772,4.8824,4.8863,4.8905,4.8947,4.8969,4.9008,4.9043,4.9093,4.9126,4.9188,4.9236,4.9284,4.931,4.932,4.9323,4.9331,4.9325,4.9312,4.9318,4.9254,4.9321,4.9321,4.9321,4.932,4.932,4.874,4.8774,4.8824,4.8875,4.891,4.8949,4.8984,4.9016,4.906,4.9115,4.913,4.9182,4.9225,4.9291,4.9318,4.9357,4.9354,4.9366,4.9369,4.9371,4.9371,4.9306,4.9366,4.9366,4.9366,4.9366,4.9366,0,4.8792,4.8825,4.8872,4.8932,4.8971,4.8979,4.9025,4.9057,4.9103,4.9144,4.9184,4.9241,4.9287,4.9324,4.9371,4.9395,4.94,4.9406,4.9404,4.941,4.9371,4.936,4.9401,4.9401,4.9401,4.9401,4.9401,4.9401,4.8825,4.8883,4.8904,4.8979,4.901,4.9064,4.909,4.9124,4.9156,4.922,4.9259,4.9284,4.9322,4.9372,4.9413,4.9423,4.9438,4.9443,4.9453,4.9416,4.9413,4.9409,4.9398,4.9446,4.9446,4.9488,4.9488,4.9489]}]]